Terminal Aerodrome Forecast
Issued by NWS Cleveland, OH

Home | Current Version | Previous Version | Graphics & Text | Print | Product List | Glossary On
Versions: 1 2 3 4 5 6 7 8 9 10 11 12 13 14 15 16 17
000
FTUS41 KCLE 201404 AAA
TAFERI
TAF AMD
KERI 201404Z 2014/2112 22015G25KT P6SM SCT025 OVC035
      TEMPO 2014/2016 BKN025
     FM201600 22015G25KT P6SM SCT035 BKN120
     FM210100 19018G30KT P6SM SCT250=

USA.gov is the U.S. government's official web portal to all federal, state and local government web resources and services.